World > North America > United States > Florida   Village of North Palm Beach, FL

North Palm Beach, Florida Regional Weather

Lat: 26.82N, Lon: 80.08W
Wx Zone: FLZ168Web Search
North Palm Beach Weather Warning NWS WEATHER ALERT FOR THE NORTH PALM BEACH, FL AREA - Issued: 156 PM EDT Thu Oct 1 2020 North Palm Beach Weather Warning  

Helpful Tip: Type the letters wx in the search engine next time you need to find us.

Feedback
North Palm Beach Weather Map
UTC Time: 10/1/2020, 18:14
Your Time:

North Palm Beach, FL Regional Weather

Expires:202010011800;;651054
ASUS42 KTBW 011717
RWRFL 
FLORIDA REGIONAL WEATHER ROUNDUP
NATIONAL WEATHER SERVICE TAMPA BAY RUSKIN FL
100 PM EDT THU OCT 01 2020

NOTE: "FAIR" INDICATES FEW OR NO CLOUDS BELOW 12,000 FEET WITH NO
SIGNIFICANT WEATHER AND/OR OBSTRUCTIONS TO VISIBILITY.


FLZ067-068-071>074-168-172>174-011800-
SOUTHEAST FLORIDA 
  
CITY           SKY/WX    TMP DP  RH WIND       PRES   REMARKS
W PALM BEACH   PTSUNNY   86  76  71 SE9       29.94F HX  96           
BOCA RATON     MOSUNNY   90  75  62 E7        29.94F HX 100           
FT LAUDER-EXEC MOSUNNY   88  75  65 SE13      29.93F HX  97           
FT LAUDERDALE  PTSUNNY   88  78  72 E13       29.93F HX 101           
POMPANO BEACH  MOSUNNY   86  77  74 E10       29.94F HX  97           
PEMBROKE PINES PTSUNNY   90  77  65 E12       29.95F HX 103           
OPA LOCKA      MOSUNNY   88  75  65 SE14      29.95F HX  97           
MIAMI          MOSUNNY   88  76  67 E10       29.95S THUNDER HX  99   
WEST KENDALL   PTSUNNY   86  80  82 N9        29.94F HX 101           
HOMESTEAD      MOSUNNY   88  73  62 NE9       29.93F HX  96           

STATION/POSITION SKY/WX   TEMP    WIND        PRES    WAVE   SWELL
                          AIR SEA DIR/SP/G            HT/PER HT/PER
                          (F)     (DEG/KT/KT) (MB)    (FT/S) (FT/S)
VIRGINIA KEY               82 87   40/  6/ 12 1014.5F
LAKE WORTH                 83 84  140/  7/  8 1013.7F
FOWEY ROCKS                82 85   30/  7/  8 1014.3F
SETTLEMENT POINT           84     160/  6/  8 1014.3F

$$

  

SKY/WX - Weather  TMP - Temperature  DP - Dew Point  RH - Relative Humidity
WIND - Wind Direction/Speed PRES - Barometric Pressure VSB - Visibility
WCI - Wind Chill Index E13G22 Wind - East Wind 13 mph/Gusts of 22 mph